User: anonymous
Location: Unspecified
(0.0000°N, 0.0000°E)
Time: 18:55:54
(UTC+00:00)
Language:

AEHF 1 (USA 214) - Orbit

View from above orbital plane
View from above orbital plane
View from above satellite
View from above satellite

Ground track
Ground track

The orbit data is extracted from the following two-line orbital elements,

1 36868U 10039A   14208.08395857 0.00000000  00000-0  00000-0 0    07
2 36868   2.2324 266.9029 0006362 151.1212 208.9296  1.00270000    06
Epoch (UTC): 27 July 2014 02:00:54
Eccentricity: 0.0006362
inclination: 2.2324°
perigee height: 35760 km
apogee height: 35813 km
right ascension of ascending node: 266.9029°
argument of perigee: 151.1212°
revolutions per day: 1.00270000
mean anomaly at epoch: 208.9296°
orbit number at epoch: 0

The dashed part of the orbit path shows where the satellite is in the earth's shadow,  

DLR